sat.trackr.live / text

‹ back to catalog

ONEWEB-0227

NORAD 48792 · 2021-045AB

PAYLOAD ACTIVE UNKNOWN

§ Identity

Operator
Country
UK
Launch date
2021-05-28
Launch site
VOSTO
Launch vehicle
Mass (kg)
RCS (m²)

Purposes: comms

External: N2YO · Heavens-Above · Gunter

§ Orbital elements

Epoch: 2026-09-15T17:12:58.436064Z

Period
109.46 min
Inclination
87.8982°
Eccentricity
0.0001947
Mean motion
13.15547877 rev/d
Perigee alt
1,200.3 km
Apogee alt
1,203.2 km
Semi-major
7,579.9 km
B*
2.7556e-4
RAAN
241.1411°
Arg perigee
82.3866°
Mean anomaly
277.7485°
Rev number
25,628

§ Raw data

ONEWEB-02271 48792U 21045AB  26258.71734301  .00000117  00000+0  27556-3 0  99972 48792  87.8982 241.1411 0001947  82.3866 277.7485 13.15547877256283

JSON: /api/v1/satellites/48792 · /tle

For live sub-satellite position, see the globe view (requires WebGL).

§ Visibility from observer

Set your observer location to see the next 7 days of passes ≥ 10°. The values pass through the URL so the page stays shareable.

No JS? Fill the form by hand. The geolocation button needs JavaScript.